DMSP 5D-2 F13 DEB, 40526

Orbit data source: Space-Track

DMSP 5D-2 F13 DEB, 40526 is space debris in SSO originally from a launch on Fri, 24 Mar 1995 UTC launched from the Air Force Western Test Range (AFWTR). Debris objects in space refer to the collection of defunct objects orbiting the Earth. Examples of debris include non-operational satellites, rocket bodies, and fragments generated from explosions, collisions, or faulty payload assembly.

Loading next visibility...
Identifier
40526, 1995-015DN
Orbit
SSO
Country
Flag of USUS
Related business
Manufacturer
Unknown
Mission
Spacecraft
Bus & Motor
Unknown
Mass
Unknown
Launch date (UTC)
1995-03-24 (31 years ago)
Launch vehicle
Unknown
Launch site
Air Force Western Test Range (AFWTR)
Object type
Payload
Rocket body
Debris
Shape & HBR
Unknown shape, 0.1 m
Radar Cross Section
Small (<0.1 m²)

Expand to show TLE details & history
Last TLE update: 2 days ago

TLE from 2 days ago
0 DMSP 5D-2 F13 DEB
1 40526U 95015DN  26171.08357701  .00004092  00000-0  11326-2 0  9995
2 40526  98.6113 216.8986 0021057 293.6598  66.2383 14.47069495585740
Epoch: 2026-06-20T02:00Z
TLE epoch observation values (Epoch: 2026-06-20T02:00:21.053Z)
Latitude
-0.00009°
Longitude
-81.4924°
Altitude
732.18 km
Speed
7.492 km/s
True Right ascension
14h 27m 35s
True Declination
0° 00' 00"
Sunlit
Object was in full shadow at epoch
Visualization orbit readout
Latitude
Unknown
Longitude
Unknown
Altitude
Unknown
Speed
Unknown
Apparent Right ascension
Unknown
Apparent Declination
Unknown
Sunlit
N/A
Visualization observer readout
Local Sidereal Time
23:19:44
Azimuth
Unknown
Elevation
Unknown
Doppler factor
Unknown
Orbital elements
Apogee altitude
747.326 km
Perigee altitude
717.381 km
Semi-major axis
7,110.491 km
Eccentricity
0.00211
Inclination
98.6113°
RAAN
216.8986°
Arg. of periapsis
293.6598°
True anomaly
66.45937°
Mean anomaly
66.2383°
Eccentric anomaly
66.34881°
Mean motion
3.61988 °/min
Orbital period
99.45 mins
BSTAR
0.0011326
Loading maneuver chart data...
Computing Atmospheric mass density...

Documentation

Showing up to 5 results
|